TimeEDT,TemperatureF,Dew PointF,Humidity,Sea Level PressureIn,VisibilityMPH,Wind Direction,Wind SpeedMPH,Gust SpeedMPH,PrecipitationIn,Events,Conditions,WindDirDegrees,DateUTC
12:15 AM,47.5,43.9,87,29.94,7.0,Calm,Calm,-,N/A,,Scattered Clouds,0,2013-05-20 04:15:00
12:34 AM,47.8,44.2,87,29.94,7.0,Calm,Calm,-,N/A,,Mostly Cloudy,0,2013-05-20 04:34:00
12:55 AM,47.7,44.2,88,29.94,5.0,Calm,Calm,-,N/A,,Overcast,0,2013-05-20 04:55:00
1:15 AM,48.9,45.3,87,29.94,5.0,Calm,Calm,-,N/A,,Overcast,0,2013-05-20 05:15:00
1:34 AM,50.2,46.6,87,29.93,5.0,Calm,Calm,-,N/A,,Overcast,0,2013-05-20 05:34:00
1:55 AM,52.0,48.0,86,29.93,7.0,Calm,Calm,-,N/A,,Overcast,0,2013-05-20 05:55:00
2:15 AM,54.3,49.8,85,29.92,10.0,SE,3.5,-,N/A,,Mostly Cloudy,130,2013-05-20 06:15:00
2:35 AM,54.7,50.0,84,29.92,7.0,ESE,3.5,-,N/A,,Mostly Cloudy,120,2013-05-20 06:35:00
2:55 AM,55.6,50.7,84,29.92,7.0,Calm,Calm,-,N/A,,Mostly Cloudy,0,2013-05-20 06:55:00
3:15 AM,55.9,51.3,84,29.91,7.0,SSE,4.6,-,N/A,,Scattered Clouds,150,2013-05-20 07:15:00
3:35 AM,56.8,52.2,84,29.91,5.0,SE,3.5,-,N/A,,Haze,130,2013-05-20 07:35:00
4:14 AM,46.0,43.9,92,29.92,2.0,East,9.2,-,N/A,,Overcast,80,2013-05-20 08:14:00
4:35 AM,46.8,45.0,93,29.94,0.8,ESE,5.8,-,N/A,,Overcast,110,2013-05-20 08:35:00
4:55 AM,47.1,45.5,94,29.95,0.8,East,4.6,-,N/A,,Overcast,100,2013-05-20 08:55:00
5:14 AM,48.6,47.3,95,29.94,0.5,ESE,6.9,-,N/A,Fog,Fog,110,2013-05-20 09:14:00
5:35 AM,50.9,49.6,95,29.93,1.0,East,9.2,-,N/A,,Overcast,100,2013-05-20 09:35:00
5:55 AM,52.3,51.1,95,29.94,4.0,ESE,10.4,-,N/A,,Scattered Clouds,110,2013-05-20 09:55:00
6:15 AM,52.9,51.4,95,29.93,2.5,East,11.5,16.1,N/A,,Overcast,100,2013-05-20 10:15:00
6:35 AM,50.5,49.1,95,29.93,1.0,East,11.5,-,N/A,,Overcast,90,2013-05-20 10:35:00
6:54 AM,50.2,49.1,96,29.93,0.2,East,9.2,-,N/A,Fog,Fog,100,2013-05-20 10:54:00
7:15 AM,49.8,48.4,95,29.95,0.5,East,5.8,-,N/A,Fog,Fog,80,2013-05-20 11:15:00
7:35 AM,50.7,49.5,95,29.95,0.8,East,5.8,-,N/A,,Overcast,80,2013-05-20 11:35:00
7:55 AM,51.8,50.5,95,29.94,1.5,East,12.7,-,N/A,,Overcast,90,2013-05-20 11:55:00
8:15 AM,51.1,50.0,96,29.93,1.2,East,12.7,16.1,N/A,,Overcast,100,2013-05-20 12:15:00
8:35 AM,51.3,50.0,95,29.93,3.0,ESE,12.7,-,N/A,,Overcast,110,2013-05-20 12:35:00
8:55 AM,52.9,51.3,94,29.95,5.0,East,10.4,-,N/A,,Overcast,100,2013-05-20 12:55:00
9:15 AM,55.0,52.9,92,29.94,7.0,ESE,15.0,21.9,N/A,,Overcast,110,2013-05-20 13:15:00
9:34 AM,56.3,52.9,88,29.95,7.0,SE,9.2,-,N/A,,Overcast,130,2013-05-20 13:34:00
10:15 AM,57.4,52.2,83,29.93,10.0,ESE,15.0,21.9,N/A,,Overcast,120,2013-05-20 14:15:00
10:34 AM,57.4,52.3,83,29.97,10.0,East,16.1,23.0,N/A,,Overcast,100,2013-05-20 14:34:00
10:55 AM,58.3,52.9,82,29.93,10.0,ESE,17.3,24.2,N/A,,Overcast,110,2013-05-20 14:55:00
11:35 AM,58.3,52.0,80,29.92,10.0,East,13.8,-,N/A,,Overcast,90,2013-05-20 15:35:00
11:55 AM,59.4,53.1,80,29.92,10.0,East,11.5,-,N/A,,Overcast,90,2013-05-20 15:55:00
12:15 PM,61.0,54.9,80,29.91,5.0,ESE,16.1,21.9,N/A,,Haze,110,2013-05-20 16:15:00
12:35 PM,61.3,55.0,80,29.91,5.0,ESE,16.1,-,N/A,,Haze,110,2013-05-20 16:35:00
12:55 PM,62.2,55.4,78,29.89,5.0,ESE,19.6,24.2,N/A,,Haze,120,2013-05-20 16:55:00
1:14 PM,60.8,55.2,82,29.89,4.0,SE,17.3,25.3,N/A,,Haze,130,2013-05-20 17:14:00
1:35 PM,61.3,55.4,81,29.87,5.0,ESE,16.1,21.9,N/A,,Haze,110,2013-05-20 17:35:00
1:55 PM,62.6,55.9,79,29.86,5.0,ESE,17.3,-,N/A,,Haze,110,2013-05-20 17:55:00
2:14 PM,64.6,56.5,75,29.85,7.0,East,15.0,21.9,N/A,,Mostly Cloudy,100,2013-05-20 18:14:00
2:55 PM,65.3,56.7,74,29.82,7.0,SE,20.7,27.6,N/A,,Scattered Clouds,130,2013-05-20 18:55:00
3:15 PM,63.0,55.9,78,29.83,5.0,ESE,17.3,26.5,N/A,,Haze,120,2013-05-20 19:15:00
3:35 PM,63.9,56.5,77,29.82,5.0,ESE,19.6,26.5,N/A,,Haze,110,2013-05-20 19:35:00
3:55 PM,63.1,56.1,78,29.80,7.0,ESE,16.1,26.5,N/A,,Overcast,120,2013-05-20 19:55:00
4:15 PM,62.6,56.3,80,29.80,5.0,ESE,19.6,27.6,N/A,,Haze,120,2013-05-20 20:15:00
4:35 PM,60.4,55.6,84,29.81,5.0,ESE,4.6,18.4,N/A,Rain,Light Rain,110,2013-05-20 20:35:00
4:55 PM,56.5,53.6,90,29.83,1.5,ENE,6.9,-,N/A,Rain,Light Rain,60,2013-05-20 20:55:00
5:14 PM,56.5,54.3,92,29.81,1.5,East,11.5,-,N/A,Rain,Heavy Rain,80,2013-05-20 21:14:00
5:35 PM,56.8,54.5,92,29.80,2.5,East,10.4,-,N/A,Rain,Light Rain,80,2013-05-20 21:35:00
5:54 PM,52.0,50.2,94,29.80,4.0,East,10.4,-,N/A,,Scattered Clouds,90,2013-05-20 21:54:00
6:15 PM,53.8,52.0,94,29.80,4.0,ESE,9.2,-,N/A,,Clear,110,2013-05-20 22:15:00
6:35 PM,53.8,51.8,93,29.80,7.0,ESE,9.2,-,N/A,,Clear,110,2013-05-20 22:35:00
6:54 PM,53.2,50.9,92,29.80,7.0,SSE,4.6,-,N/A,,Clear,150,2013-05-20 22:54:00
7:15 PM,52.9,50.7,92,29.80,5.0,ESE,5.8,-,N/A,,Clear,110,2013-05-20 23:15:00
7:35 PM,52.2,50.2,93,29.78,4.0,Calm,Calm,-,N/A,,Mostly Cloudy,0,2013-05-20 23:35:00
7:54 PM,51.8,49.6,92,29.79,5.0,Calm,Calm,-,N/A,,Overcast,0,2013-05-20 23:54:00
8:15 PM,50.4,48.7,94,29.81,0.2,East,6.9,-,N/A,Fog,Fog,80,2013-05-21 00:15:00
8:34 PM,50.9,49.5,95,29.82,0.2,East,8.1,-,N/A,Fog,Fog,100,2013-05-21 00:34:00
8:55 PM,52.2,50.9,95,29.82,0.5,East,5.8,-,N/A,Fog,Fog,100,2013-05-21 00:55:00
9:15 PM,52.2,50.9,95,29.82,0.5,ESE,6.9,-,N/A,Fog,Fog,110,2013-05-21 01:15:00
9:34 PM,52.3,51.3,96,29.82,0.5,ESE,3.5,-,N/A,Fog,Fog,110,2013-05-21 01:34:00
10:15 PM,53.6,52.7,97,29.84,5.0,East,9.2,-,N/A,,Overcast,100,2013-05-21 02:15:00
10:34 PM,52.9,51.8,96,29.85,4.0,ESE,8.1,-,N/A,,Overcast,110,2013-05-21 02:34:00
10:55 PM,52.2,51.1,96,29.84,0.5,East,9.2,-,N/A,Fog,Fog,80,2013-05-21 02:55:00
11:15 PM,50.7,49.5,95,29.83,0.5,ENE,4.6,-,N/A,Fog,Fog,60,2013-05-21 03:15:00
11:34 PM,47.7,46.4,95,29.83,0.5,ENE,3.5,-,N/A,Fog,Fog,60,2013-05-21 03:34:00
11:55 PM,47.5,46.4,96,29.83,0.5,East,8.1,-,N/A,Fog,Fog,80,2013-05-21 03:55:00